GEC42 EDDF-SBKP

Flight info

Callsign GEC42
Flight time N/A
Altitude 27000
Route ANEKI2L/18 ANEKI Y163 HERBI Y164 OLBEN DCT ONNOF DCT BELUS/N0483F280 DCT LSE/N0475F270 UY305 ESIDA DCT FISTO/N0496F290 DCT URUNA P181 NEA L14 ADINO DCT EXONA DCT BEVOP DCT BEXAL UN866 KONBA N866 GOMER/N0499F300 N866 TENPA UN866 AMDOL/N0503F310 UN866 DEKON/N0500F320 UN866 ARTIG UZ18 ROLID UN741 ERUGU UZ61 OBGIP/N0492F340 UZ61 USVOL UZ30 ENTIT
Aircraft B77L/H-SDE1E2E3FGHIJ2J3J4J5M1RWXY/LB1D1

Departure

Time 2026-04-14 15:16
Airport Frankfurt Main Airport (EDDF)

Arrival

Time N/A
Airport Viracopos International Airport (SBKP)
Time Latitude Longitude Altitude Speed Heading
2026-04-14 14:51 50.04003 8.54544 363 ft 0 kts 249°
2026-04-14 15:07 50.04008 8.54566 363 ft 4 kts 249°
2026-04-14 15:07 50.04018 8.54605 359 ft 4 kts 249°
2026-04-14 15:07 50.04027 8.54638 363 ft 4 kts 224°
2026-04-14 15:07 50.04047 8.54650 363 ft 4 kts 163°
2026-04-14 15:08 50.04068 8.54638 363 ft 1 kts 160°
2026-04-14 15:08 50.04072 8.54636 362 ft 0 kts 160°
2026-04-14 15:10 50.04070 8.54637 362 ft 3 kts 160°
2026-04-14 15:11 50.04015 8.54669 358 ft 7 kts 159°
2026-04-14 15:11 50.03965 8.54676 360 ft 7 kts 195°
2026-04-14 15:11 50.03927 8.54623 363 ft 7 kts 237°
2026-04-14 15:11 50.03907 8.54549 360 ft 8 kts 250°
2026-04-14 15:12 50.03888 8.54472 358 ft 8 kts 249°
2026-04-14 15:12 50.03865 8.54389 360 ft 11 kts 242°
2026-04-14 15:12 50.03804 8.54238 356 ft 22 kts 245°
2026-04-14 15:12 50.03742 8.53980 355 ft 27 kts 250°
2026-04-14 15:13 50.03676 8.53709 354 ft 27 kts 249°
2026-04-14 15:13 50.03607 8.53432 353 ft 27 kts 250°
2026-04-14 15:13 50.03542 8.53156 348 ft 27 kts 250°
2026-04-14 15:13 50.03482 8.52913 347 ft 17 kts 248°
2026-04-14 15:14 50.03447 8.52789 336 ft 4 kts 248°
2026-04-14 15:14 50.03444 8.52778 336 ft 0 kts 248°
2026-04-14 15:14 50.03441 8.52764 336 ft 4 kts 248°
2026-04-14 15:15 50.03420 8.52684 338 ft 12 kts 248°
2026-04-14 15:15 50.03357 8.52597 337 ft 13 kts 182°
2026-04-14 15:15 50.03261 8.52596 336 ft 18 kts 179°
2026-04-14 15:15 50.02981 8.52598 338 ft 75 kts 180°
2026-04-14 15:16 50.02186 8.52607 335 ft 151 kts 179°
2026-04-14 15:16 50.00937 8.52624 452 ft 201 kts 178°
2026-04-14 15:16 49.99490 8.52661 963 ft 209 kts 178°
2026-04-14 15:16 49.97976 8.52753 1468 ft 225 kts 176°
2026-04-14 15:17 49.96435 8.52863 2270 ft 229 kts 176°
2026-04-14 15:17 49.94754 8.52984 2531 ft 248 kts 176°
2026-04-14 15:17 49.93021 8.53107 2971 ft 259 kts 176°
2026-04-14 15:17 49.91172 8.53240 3424 ft 270 kts 176°
2026-04-14 15:18 49.89283 8.53374 3959 ft 274 kts 177°
2026-04-14 15:18 49.87356 8.53507 3955 ft 279 kts 176°
2026-04-14 15:18 49.85420 8.53641 3959 ft 278 kts 176°
2026-04-14 15:18 49.83487 8.53775 4070 ft 278 kts 176°
2026-04-14 15:19 49.81551 8.53911 4733 ft 280 kts 176°
2026-04-14 15:19 49.79593 8.54048 5415 ft 283 kts 176°
2026-04-14 15:19 49.77611 8.54163 6095 ft 286 kts 179°
2026-04-14 15:19 49.75603 8.54002 6763 ft 290 kts 184°
2026-04-14 15:20 49.73592 8.53704 7453 ft 290 kts 185°
2026-04-14 15:20 49.71589 8.53390 8159 ft 290 kts 185°
2026-04-14 15:20 49.69573 8.53082 8825 ft 291 kts 185°
2026-04-14 15:20 49.67574 8.52789 9635 ft 286 kts 186°
2026-04-14 15:21 49.65599 8.52508 10354 ft 286 kts 186°
2026-04-14 15:21 49.63583 8.52226 10691 ft 299 kts 186°
2026-04-14 15:21 49.61441 8.51932 10834 ft 318 kts 186°
2026-04-14 15:21 49.59172 8.51625 11010 ft 337 kts 186°
2026-04-14 15:22 49.56767 8.51302 11180 ft 356 kts 186°
2026-04-14 15:22 49.54297 8.50974 11601 ft 366 kts 186°
2026-04-14 15:22 49.51726 8.50633 12128 ft 374 kts 186°
2026-04-14 15:22 49.49114 8.50289 12740 ft 379 kts 186°
2026-04-14 15:23 49.46471 8.49941 13231 ft 383 kts 186°
2026-04-14 15:23 49.43801 8.49589 13179 ft 384 kts 186°
2026-04-14 15:23 49.41151 8.49241 13184 ft 382 kts 186°
2026-04-14 15:23 49.38512 8.48895 13185 ft 380 kts 186°
2026-04-14 15:24 49.35873 8.48548 13185 ft 381 kts 186°
2026-04-14 15:24 49.33230 8.48200 13189 ft 381 kts 186°
2026-04-14 15:24 49.30583 8.47854 13196 ft 382 kts 186°
2026-04-14 15:24 49.27934 8.47513 13189 ft 382 kts 186°
2026-04-14 15:25 49.25276 8.47176 13220 ft 384 kts 186°
2026-04-14 15:25 49.22598 8.46839 13833 ft 387 kts 186°
2026-04-14 15:25 49.19906 8.46500 14506 ft 389 kts 186°
2026-04-14 15:25 49.17200 8.46159 15132 ft 391 kts 186°
2026-04-14 15:26 49.14477 8.45816 15710 ft 395 kts 186°
2026-04-14 15:26 49.11727 8.45470 16280 ft 398 kts 186°
2026-04-14 15:26 49.08951 8.45121 16871 ft 402 kts 186°
2026-04-14 15:26 49.06155 8.44701 17429 ft 405 kts 189°
2026-04-14 15:27 49.03385 8.43842 17981 ft 408 kts 194°
2026-04-14 15:27 49.00609 8.42822 18547 ft 411 kts 194°
2026-04-14 15:27 48.97816 8.41815 19061 ft 413 kts 194°
2026-04-14 15:27 48.95049 8.40832 19613 ft 415 kts 194°
2026-04-14 15:28 48.92218 8.39837 20069 ft 419 kts 194°
2026-04-14 15:28 48.89370 8.38843 20541 ft 422 kts 194°
2026-04-14 15:28 48.86499 8.37843 21038 ft 424 kts 194°
2026-04-14 15:28 48.83609 8.36837 21543 ft 427 kts 194°
2026-04-14 15:29 48.80703 8.35826 22025 ft 430 kts 194°
2026-04-14 15:29 48.77779 8.34807 22495 ft 433 kts 194°
2026-04-14 15:29 48.74840 8.33749 23008 ft 434 kts 195°
2026-04-14 15:29 48.71897 8.32673 23502 ft 436 kts 195°
2026-04-14 15:30 48.68936 8.31588 23912 ft 439 kts 195°
2026-04-14 15:30 48.65949 8.30496 24262 ft 443 kts 195°
2026-04-14 15:30 48.62937 8.29400 24612 ft 446 kts 195°
2026-04-14 15:30 48.59901 8.28300 24959 ft 450 kts 194°
2026-04-14 15:31 48.56849 8.27197 25304 ft 453 kts 194°
2026-04-14 15:31 48.53770 8.26085 25644 ft 456 kts 194°
2026-04-14 15:31 48.50673 8.24968 25980 ft 459 kts 194°
2026-04-14 15:31 48.47592 8.23856 26318 ft 462 kts 194°
2026-04-14 15:32 48.44453 8.22715 26642 ft 466 kts 195°
2026-04-14 15:32 48.41291 8.21561 26973 ft 469 kts 195°
2026-04-14 15:32 48.38109 8.20400 27306 ft 472 kts 194°
2026-04-14 15:32 48.34905 8.19234 27621 ft 475 kts 194°
2026-04-14 15:33 48.31677 8.18062 27949 ft 477 kts 194°
2026-04-14 15:33 48.28439 8.16889 28259 ft 480 kts 194°
2026-04-14 15:33 48.25180 8.15692 28555 ft 483 kts 196°
2026-04-14 15:33 48.21970 8.14161 28834 ft 485 kts 202°
2026-04-14 15:34 48.18815 8.12332 29116 ft 488 kts 202°
2026-04-14 15:34 48.15642 8.10483 29396 ft 491 kts 202°
2026-04-14 15:34 48.12446 8.08633 29641 ft 494 kts 202°
2026-04-14 15:34 48.09231 8.06790 29881 ft 496 kts 202°
2026-04-14 15:35 48.06001 8.04953 30136 ft 499 kts 201°
2026-04-14 15:35 48.02739 8.03108 30181 ft 501 kts 201°
2026-04-14 15:35 47.96231 7.99444 30200 ft 497 kts 201°
2026-04-14 15:36 47.89778 7.95823 30203 ft 495 kts 201°
2026-04-14 15:36 47.83338 7.92215 30193 ft 495 kts 201°
2026-04-14 15:37 47.76893 7.88612 30190 ft 495 kts 201°
2026-04-14 15:37 47.70437 7.85013 30192 ft 495 kts 201°
2026-04-14 15:38 47.63985 7.81426 30183 ft 495 kts 201°
2026-04-14 15:38 47.57529 7.77846 30182 ft 495 kts 201°
2026-04-14 15:39 47.51114 7.74297 30186 ft 495 kts 201°
2026-04-14 15:39 47.44660 7.70736 30186 ft 495 kts 201°
2026-04-14 15:40 47.38211 7.67186 30184 ft 495 kts 201°
2026-04-14 15:40 47.31875 7.63250 30166 ft 493 kts 210°
2026-04-14 15:41 47.26222 7.57608 30174 ft 491 kts 221°
2026-04-14 15:41 47.21149 7.50887 30181 ft 491 kts 223°
2026-04-14 15:42 47.16105 7.44212 30186 ft 491 kts 222°
2026-04-14 15:42 47.10985 7.37512 30185 ft 494 kts 223°
2026-04-14 15:43 47.05824 7.30800 30174 ft 497 kts 223°
2026-04-14 15:43 47.00628 7.24067 30172 ft 500 kts 223°
2026-04-14 15:44 46.95407 7.17318 30151 ft 501 kts 223°